Member area
Imprimable
Braine le Comte, 07/02/2015, BEL - Le Trail des Bosses
List of reports > 65km - Result
Search: Page: [1]
106 Entries
 
Complains are not accepted anymore. Results are final.
Category
PosNrNameAgeNATTeamRealTimeTkmMoy.PlaceNameCity
1.2060LEURS Remi35FRAVAFA SECTION TR5:06:205:06:204:43 12.731sehBONDUES
2.2038HARDUIN Olivier37FRAACVA SECTION TR5:24:455:24:465:00 12.012sehVILLENEUVE D'ASCQ
3.2047KEUPPENS Benny38BEL5:43:495:43:505:18 11.343sehBEERSE
4.2094SIRINGO Vincent26BELRUNNING GENT / 5:55:335:55:335:29 10.974sehGENT
5.2002BASTIAENS Wim37BELYELLOW CITY BAS5:56:475:56:485:30 10.935sehGEEL
6.2091SCHÖN Maarten39NLDTRAILRUNNING NE6:10:316:10:365:43 10.526sehGOIRLE
7.2100THOMAS Christophe39BELTRAKKS6:10:466:10:485:43 10.527sehBRUXELLES
8.2054LEERG Olivier40BEL6:14:566:14:585:47 10.401v1hKORTRIJK
9.2016DE BIE Fons52NLDUNITAS6:19:026:19:035:50 10.291v2hSITTARD
10.2017DEBRABANDERE Lander40BEL6:27:286:27:405:58 10.062v1hWIJGMAAL
11.2083RENAUX Emmanuel40FRAVAFA TRAIL6:29:376:29:386:00 10.013v1hVILLENEUVE D'ASCQ
12.2057LEMPEREUR Jean42FRATEAM HORIZONS N6:32:546:33:126:03 9.924v1hCROIX
13.2114WEBER Andreas48DEUTV BORKEN6:34:286:34:406:05 9.885v1hHEIDEN
14.2019DELTOMBE Matthieu23BEL6:38:506:38:516:09 9.788sehNAMUR
15.2101FTILLE Kristina41DEUTV ATTENDORN6:42:486:42:586:12 9.681v1fATTENDORN
16.2034GERMEYS Filip42BEL6:46:586:47:086:16 9.586v1hKESSEL-LO
17.2093SIMONIS Fabian24BEL6:48:506:48:526:18 9.549sehTHIMISTER
18.2044JÜCHTER Birger43DEUWAT LÄUFT ULTRA6:49:266:49:396:19 9.527v1hDÜSSELDORF
19.2106VAN DEN BOSSCHE David40BEL6:52:026:52:076:21 9.468v1hOPWIJK
20.2089ROTTIERS Ken39BEL6:52:006:52:086:21 9.4610sehSCHOTEN
21.2062MAUS Moritz40DEULC OLYMPIA WIES6:54:306:54:436:23 9.409v1hWIESBADEN
22.2005FBIL Marjolein30NLD6:56:566:56:586:25 9.351sefBERGEN OP ZOOM
23.2073FPETRIC Stella43NLD6:56:576:56:586:25 9.352v1fTUK
24.2119FVAN DER GEEST Chantal38NLD6:57:016:57:066:26 9.353v1fUTRECHT
25.2023DE POORTER Samuel41BELROCCOTEAM6:57:216:57:306:26 9.3410v1hWEZ-VELVAIN
26.2036GHESQUIERE Christophe45BELDAPALO6:57:176:57:376:26 9.3411v1hWERVIK
27.2079POULAIN Pascal41BEL6:58:406:58:496:27 9.3112v1hGENK
28.2095SLABON Raimund55DEUTEAM ERDINGER A7:02:127:02:236:30 9.232v2hVELBERT
29.2075PICOT Antoine52FRAACVA - VAFA : 47:05:107:05:126:33 9.173v2hVILLENEUVE D'ASCQ
30.2004BECKMANN Stefan56DEUTV BORKEN7:14:597:15:096:42 8.964v2hBORKEN
31.2120FMORROW Paige32IRLBRUSSELS RUNNER7:18:177:18:306:45 8.892sefBRUXELLES
32.2040HERMANT Philippe49FRABIGOREX TEAM7:19:407:19:556:47 8.8713v1hMANIN
33.2035GEYER Andreas51DEUTV ATTENDORN7:19:477:19:576:47 8.865v2hATTENDORN
34.2096SNOEKS Jos54BELVACH7:20:377:20:486:47 8.856v2hEKSEL
35.2074PHILIPPART Eric50BELTRAKKS7:22:257:22:306:49 8.817v2hCÉROUX-MOUSTY
36.2020DEMOULIN Francois28BEL7:22:157:22:306:49 8.8111sehVIELSALM
37.2078PLUTNIAK Simon26FRAVAFA SECTION TR7:26:417:26:456:53 8.7312sehLILLE
38.2099TAYLOR Sébastien35BEL7:27:047:27:226:53 8.7213sehSTOCKEM
39.2090SAMAIN Anthony46BELCOACH RUNNING7:27:137:27:226:53 8.7214v1hCHERCQ
40.2008CAPARROS Laurent49FRA7:27:597:28:056:54 8.7015v1hBEERSEL
41.2024DEROECK Robin31BELVEGAN ATHLETE R7:28:487:29:046:55 8.6814sehZOTTEGEM
42.2092SCHOUPPE Andy35BELATT7:28:477:29:066:55 8.6815sehDENDERWINDEKE
43.2118SANSTERRE Fabien33BEL7:29:157:29:226:55 8.6816sehBRAINE LE COMTE
44.2112VEREECKE Marc44BELUSBW ROAD TEAM7:31:417:31:566:58 8.6316v1hBRAINE-L'ALLEUD
45.2056LEGROS David40BEL7:33:037:33:096:59 8.6117v1hECACHERIES
46.2082FRENARD Alexandrine30FRA7:35:187:35:227:01 8.563sefCOURT ST ETIENNE
47.2117REUNIS Philippe49BELCACE7:35:437:35:497:01 8.5618v1hANDERLECHT
48.2122LAU Frederic42BEL7:36:067:36:297:02 8.5419v1hUUCLE
49.2012COLARD Andrew37BELANDREW7:37:587:38:147:03 8.5117sehLIEGE
50.2033GEHLHAAR Robert37DEUSBB-DAV7:40:047:40:187:05 8.4718sehHERENT
51.2007BOUCHEZ Yannick36BELTORSE - MADRES7:41:567:42:117:07 8.4419sehWIERS
52.2039FHENNEUSE Judith44BELHÉRINNES7:42:357:42:427:08 8.434v1fNÉCHIN
53.2025DERVAUX Gaetan43BELPIPAIX7:45:557:46:107:11 8.3720v1hBÉCLERS
54.2013COOLEN Hans46BEL7:46:527:47:037:12 8.3521v1hLOMMEL
55.1190LAMBERT Grégory37BEL7:51:057:51:147:15 8.2820sehWATERLOO
56.2042JANSZ Marc53NLDFLATMOUNTAINEER7:54:277:54:307:18 8.228v2hALMERE
57.2097SPELLANZON Michael44BELFRT BINCHE7:54:417:55:037:19 8.2122v1hBINCHE
58.2111VAN POEKE Yves47BELCACE7:56:087:56:157:20 8.1923v1hLEDE
59.2022DEPOORTERE Ludo57BEL7:57:477:57:507:22 8.169v2hGELUWE
60.2070OREINS Pierre54BELRIWA7:59:087:59:177:23 8.1410v2hWAVRE
61.2026DESCAMPS Marc38BELTRIATH8:01:118:01:127:25 8.1021sehPÉRUWELZ
62.2086ROB Vincent31BELFLEU8:02:298:02:457:26 8.0822sehWANFERCÉE-BAULET
63.2059LEPELLETIER Dominique50FRABIGOREX TEAM8:03:308:03:457:27 8.0611v2hSAULTY
64.2085RISSELIN Thierry52BEL8:04:008:04:057:27 8.0612v2hHEMPTINNE
65.2071PEETERS Kurt42BEL8:05:498:06:007:29 8.0224v1hERPS-KWERPS
66.2061L'HOSTIS Yann48FRAACVA8:06:288:06:357:30 8.0225v1hROUBAIX
67.2048KIYA Masahiko51JPNRCB TRAIL8:06:278:06:357:30 8.0213v2hWOLUWE-SAINT-PIERRE
68.2032FOUILLEUL Benoit36FRA8:09:278:09:437:33 7.9623sehWATERLOO
69.2029DUGAUQUIER Mike39BELTRAKKS8:09:298:09:497:33 7.9624sehLASNE
70.2116WOTTKE Jens51DEUSPORTING WEMMEL8:22:078:22:207:44 7.7614v2hWEMMEL
71.2041JANSSENS Paul55BELSWIFT RUNNING C8:26:118:26:197:48 7.7015v2hFOLX LES CAVES
72.2103TOLBECQ Stephane39BELSWIFT RUNNING C8:26:128:26:207:48 7.7025sehASSE
73.2003BEAUFAYS Olivier39BEL8:27:068:27:237:49 7.6926sehBRAINE-LE-COMTE
74.2031FALEMPIN Laurent43FRABIGOREX TEAM8:32:188:32:347:54 7.6126v1hARRAS
75.2098STATSYNS Jean-François48BEL8:39:278:39:368:00 7.5127v1hJOIDOIGNE (MÉLIN)
76.2077PINDEVILLE Christian67BELRIWA8:39:378:39:458:00 7.501v3hWAVRE
77.1174JOHN Dennis33DEUTC KRAY 1892 E.8:44:208:44:348:05 7.4327sehESSEN
78.2065MÜLLER Frank54DEUADLER-LANGLAUF 8:44:228:44:388:05 7.4316v2hBOTTROP
79.2027FDESCHODT Samantha46BEL9:01:439:01:568:21 7.201v2fGELUWE
80.2076PIERARD Michel45BEL9:10:069:10:158:28 7.0928v1hCHASTRE
81.2021FDENUTTE Sophie43BEL9:09:589:10:168:28 7.095v1fBRAINE LE COMTE
82.2110VAN DER VEER Pascal40NLD9:26:329:26:528:44 6.8829v1hDEINZE
83.2087ROHRMANN Bernd56DEUTV HASPERBACH 19:31:269:31:398:48 6.8217v2hHAGEN
84.2001ASSELMAN Frank43BELTHE ROAD TO CHA9:31:569:32:108:49 6.8230v1hDENDERLEEUW
85.2006BOOM Sander47BELTHE ROAD TO CHA9:32:039:32:188:49 6.8131v1hBELSELE
86.2010CLAEYS Jean-Marie36BEL9:36:359:36:478:53 6.7628sehGELUWE
87.2011CLAEYS Kristof36BEL9:36:379:36:488:53 6.7629sehGELUWE
88.2037GLACET Emmanuel41FRAASC LILLE METRO9:43:549:44:009:00 6.6832v1hLAMBERSART
89.2107VAN DEN BROECK Maurice63BEL-9:52:509:53:109:08 6.582v3hTREMELO
90.2109VANDER DONCKT Phillippe63BEL10:10:2010:10:389:24 6.393v3hMARCQ
91.2068NOEL Miguel25BEL10:24:5610:25:009:37 6.2430sehBELGRADE
DSQ2104TUYTTENS Carl53BELVELAINES4:40:024:40:09v2hHAVINNES
DSQ2121FVAN BERGEN Inge43NLD4:40:114:40:14v1fEB SITTARD
DSQ2113VIS Marek37NLDTRAILRUNNING NE4:42:014:42:06sehTERHEIJDEN
DSQ2030ERNST Christophe45BELWISTEAM4:57:544:57:54v1hCLERMONT
DSQ2102TINEL Alexis32BELTRAKKS5:16:555:16:58sehBEERSEL
DSQ2050KRONAL Olivier35BEL5:22:125:22:16sehHEVERLEE
DSQ2105UREEL Johan56BELCACE5:29:315:29:35v2hBIERBEEK
DNF2009CHAUMET Olivier45FRAACVAv1hVILLENEUVE D'ASCQ
DNF2018DE BROUX Amaury35BELsehNOIRHAT
DNF2043JOHNSON Buzz37USAsehOOSTVOORNE
DNF2053LECLERCQ Laurent49BELRUNNING CONDROZv1hMARCHIN
DNF2067NGUYEN VAN Dung41FRAAXA RUNNING TEAv1hGENVAL
DNF2069NONET Ludwig43BELv1hBOIS DE VILLERS
DNF2084REYNTIENS Vincent31BELCOMPRESSPORT TEsehYVOIR
DNF2108VANDENTEMPEL Olivier41BELv1hWATERMAEL-BOITSFORT
DNF: did not finish; DSQ: disqualified; Speed in km/h
Page: [1]